Location: Brompton
(51.4000°N, 0.5333°E)
Time: 02:28:42
(UTC+00:00)

Cosmos 1937 Rocket - Pass Details

Date: 11 May 2021
Orbit: 746 x 781 km, 74.0° (Epoch: 13 June)

Event Time Altitude Azimuth Distance (km) Brightness Sun altitude
Exits shadow 22:09:33 28° 142° (SE) 1,368 4.2 -16.8°
Maximum altitude 22:11:15 36° 103° (ESE) 1,175 4.1 -16.9°
Drops below altitude 10° 22:15:57 10° 38° (NE) 2,289 6.3 -17.2°
Sets 22:18:29 0° 30° (NNE) 3,224 7.3 -17.4°
